#timestamp,LO_Frequency,Hit,StdDev 
1562133615.6,286046997.0,N
1562133635.4,286046996.9,N
1562133655.3,286046996.7,N
1562133675.1,286046996.6,N
1562133695.9,286046997.8,N
1562133715.7,286046995.2,Y
1562133735.5,286046996.5,P
1562133755.4,286046999.0,N
1562133775.2,286046999.1,N
1562133795.0,286047001.1,N
1562133795.9,286047001.1,N
1562133815.8,286046998.1,N
1562133835.6,286046998.5,N
1562133855.5,286047001.1,N
1562133875.3,286046998.8,N
1562133895.1,286046998.3,N
1562133915.9,286047000.7,N
1562133935.7,286046999.8,N
1562133955.5,286047002.2,N
1562133975.4,286047003.2,N
1562133995.2,286047005.6,Y
1562134015.0,286047005.6,P
1562134016.0,286047005.6,N
1562134035.8,286047003.9,N
1562134055.6,286047001.3,N
1562134075.5,286047002.2,N
1562134095.3,286047000.0,N
1562134115.1,286047000.5,N
1562134135.9,286047000.4,N
1562134155.7,286047000.7,N
1562134175.5,286047000.8,N
1562134195.4,286047000.8,N
1562134215.2,286047002.4,N
1562134235.1,286047000.0,N
1562134236.0,286047000.0,N
1562134255.8,286046998.7,N
1562134275.6,286046998.1,N
1562134295.5,286047000.6,N
1562134315.3,286047000.6,N
1562134335.1,286047000.6,N
1562134355.9,286046998.2,N
1562134375.7,286047000.7,N
1562134395.6,286047001.2,N
1562134415.4,286046999.3,N
1562134435.2,286046996.9,N
1562134455.1,286046996.9,N
1562134456.0,286046996.9,N
1562134475.8,286046999.6,N
1562134495.6,286046999.1,N
1562134515.5,286046998.7,N
1562134535.3,286046999.3,N
1562134555.1,286047001.2,N
1562134575.9,286046998.4,N
1562134595.7,286046999.1,N
1562134615.6,286046999.1,N
1562134635.4,286046998.9,N
1562134655.2,286046999.1,N
1562134675.1,286046998.3,N
1562134676.0,286046998.3,N
1562134695.8,286047000.4,N
1562134715.6,286047000.8,N
1562134735.5,286046998.6,N
1562134755.3,286047000.9,N
1562134775.2,286047001.0,N
1562134795.9,286047001.1,N
1562134815.7,286046999.9,N
1562134835.6,286047000.5,N
1562134855.4,286047000.7,N
1562134875.2,286047000.8,N
1562134895.1,286046998.7,N
1562134896.0,286046998.7,N
1562134915.8,286046998.9,N
1562134935.7,286046999.2,N
1562134955.5,286046998.8,N
1562134975.3,286046999.3,N
1562134995.2,286046996.5,Y
1562135015.9,286046999.5,P
1562135035.7,286046996.6,P
1562135055.6,286046998.8,N
1562135075.4,286046999.2,N
1562135095.2,286046998.6,N
1562135115.1,286046998.4,N
1562135116.0,286046998.4,N
1562135135.8,286046998.7,N
1562135155.7,286046998.8,N
1562135175.5,286046998.9,N
1562135195.3,286046999.0,N
1562135215.2,286047011.9,Y
1562135235.0,286046998.1,P
1562135235.9,286046998.1,P
1562135255.8,286047001.1,P
1562135275.6,286047000.8,N
1562135295.4,286046999.3,N
1562135315.3,286047001.1,N
1562135335.1,286047000.9,N
1562135355.8,286047001.2,N
1562135375.7,286046998.2,N
1562135395.5,286046998.4,N
1562135415.4,286046998.8,N
1562135435.2,286047000.3,N
1562135455.0,286047000.5,N
1562135455.9,286047000.5,N
1562135475.8,286047002.7,N
1562135495.6,286047002.4,N
1562135515.5,286047000.2,N
1562135535.3,286047002.3,N
1562135555.1,286047002.5,N
1562135575.9,286047000.9,N
1562135595.7,286046998.1,N
1562135615.5,286047001.2,N
1562135635.4,286046998.9,N
1562135655.2,286046996.5,N
1562135675.1,286046996.9,N
1562135676.0,286046996.9,N
1562135695.8,286046996.5,N
1562135715.6,286046996.5,N
1562135735.5,286046996.6,N
1562135755.3,286046997.9,N
1562135775.1,286046997.1,N
1562135795.9,286046999.6,N
1562135815.7,286046997.7,N
1562135835.6,286046997.9,N
1562135855.4,286046997.1,N
1562135875.2,286046997.4,N
1562135895.1,286046999.6,N
1562135896.0,286046999.6,N
1562135915.8,286046998.5,N
1562135935.6,286047000.7,N
1562135955.5,286047001.5,N
1562135975.3,286047001.4,N
1562135995.2,286047001.7,N
1562136015.9,286047004.8,N
1562136035.7,286047006.9,N
1562136055.6,286047006.8,N
1562136075.4,286047009.5,Y
1562136095.2,286047013.9,P
1562136115.1,286047015.5,N
1562136116.0,286047015.5,N
1562136135.8,286047014.3,N
1562136155.7,286047014.9,N
1562136175.5,286047014.4,N
1562136195.3,286047014.1,N
1562136215.2,286047014.1,N
1562136235.0,286047018.1,Y
1562136235.9,286047018.1,P
1562136255.8,286047006.2,N
1562136275.6,286047008.0,N
1562136295.4,286047009.5,N
1562136315.3,286047010.4,N
1562136335.1,286047009.4,N
1562136355.8,286047013.7,Y
1562136375.7,286047003.5,P
1562136395.5,286047004.5,N
1562136415.4,286047004.6,N
1562136435.2,286047004.9,N
1562136455.0,286047007.6,N
1562136455.9,286047007.6,Y
1562136475.8,286046998.7,P
1562136495.6,286046999.2,N
1562136515.4,286046999.3,N
1562136535.3,286046998.3,N
1562136555.1,286046999.2,N
1562136575.9,286046998.3,N
1562136595.7,286046998.3,N
1562136615.5,286046999.4,N
1562136635.4,286046997.0,N
1562136655.2,286046998.6,N
1562136675.0,286047000.7,N
1562136675.9,286047000.7,N
1562136695.8,286047002.2,N
1562136715.6,286047002.0,N
1562136735.5,286047001.4,N
1562136755.3,286047005.5,N
1562136775.1,286047009.0,Y
1562136795.9,286047008.5,P
1562136815.7,286047010.8,N
1562136835.5,286047010.4,N
1562136855.4,286047010.3,N
1562136875.2,286047012.0,Y
1562136895.1,286047003.4,P
1562136896.0,286047003.4,N
1562136915.8,286047004.2,N
1562136935.6,286047003.3,N
1562136955.5,286047001.5,N
1562136975.3,286046999.8,N
1562136995.2,286047002.1,N
1562137015.9,286047002.4,N
1562137035.7,286047003.9,N
1562137055.6,286047001.7,N
1562137075.4,286047001.3,N
1562137095.2,286047001.3,N
1562137115.1,286047002.7,N
1562137116.0,286047002.7,N
1562137135.8,286047003.4,N
1562137155.7,286047005.1,N
1562137175.5,286047006.2,Y
1562137195.3,286047005.7,P
